#timestamp,LO_Frequency,Hit,StdDev 
1509969615.8,286047003.3,N
1509969635.6,286047003.0,N
1509969655.5,286047004.5,N
1509969675.3,286047003.0,N
1509969695.1,286047001.8,N
1509969715.9,286047007.2,N
1509969735.7,286047006.3,N
1509969755.5,286047006.3,N
1509969775.4,286047005.4,N
1509969795.2,286047001.7,N
1509969815.1,286047002.6,N
1509969816.0,286047002.6,N
1509969835.8,286046997.3,N
1509969855.6,286046996.0,N
1509969875.5,286046997.3,N
1509969895.3,286046995.9,N
1509969915.1,286047002.7,N
1509969935.9,286046998.4,N
1509969955.7,286046997.2,N
1509969975.6,286046995.1,N
1509969995.4,286046994.5,N
1509970015.2,286046994.7,N
1509970035.1,286046993.3,N
1509970036.0,286046993.3,N
1509970055.8,286046991.0,N
1509970075.6,286046991.5,N
1509970095.5,286046992.7,N
1509970115.3,286046995.3,N
1509970135.1,286046996.7,N
1509970155.9,286046998.4,N
1509970175.7,286046998.8,N
1509970195.6,286046995.3,N
1509970215.4,286046997.8,N
1509970235.2,286046999.3,N
1509970255.1,286046998.1,N
1509970256.0,286046998.1,N
1509970275.8,286047003.7,N
1509970295.6,286047007.3,N
1509970315.5,286047007.9,N
1509970335.3,286047001.8,N
1509970355.1,286047001.4,N
1509970375.9,286047000.6,N
1509970395.7,286047005.7,N
1509970415.5,286047002.8,N
1509970435.4,286046999.2,N
1509970455.2,286046996.7,N
1509970475.1,286046997.7,N
1509970476.0,286046997.7,N
1509970495.8,286046998.8,N
1509970515.6,286046993.5,N
1509970535.5,286046992.1,N
1509970555.3,286046991.7,N
1509970575.1,286046994.8,N
1509970595.9,286046993.5,N
1509970615.7,286046994.0,N
1509970635.5,286046997.2,N
1509970655.4,286046995.3,N
1509970675.2,286046999.3,N
1509970695.1,286047002.0,N
1509970696.0,286047002.0,N
1509970715.8,286046998.8,N
1509970735.6,286047003.7,N
1509970755.5,286047002.5,N
1509970775.3,286047000.4,N
1509970795.1,286047002.8,N
1509970815.9,286047004.2,N
1509970835.7,286047001.6,N
1509970855.6,286047001.5,N
1509970875.4,286047004.6,N
1509970895.2,286047005.3,N
1509970915.1,286047009.1,N
1509970916.0,286047009.1,N
1509970935.8,286047005.0,N
1509970955.6,286047002.5,N
1509970975.5,286047000.3,N
1509970995.3,286047001.1,N
1509971015.1,286047007.2,N
1509971035.9,286047005.1,N
1509971055.7,286047001.6,N
1509971075.6,286047005.9,N
1509971095.4,286047001.9,N
1509971115.2,286047001.8,N
1509971135.1,286047000.1,N
1509971136.0,286047000.1,N
1509971155.8,286047000.7,N
1509971175.6,286047003.0,N
1509971195.5,286047008.5,N
1509971215.3,286047005.8,N
1509971235.1,286047001.6,N
1509971255.9,286046999.8,N
1509971275.7,286047000.0,N
1509971295.6,286047002.6,N
1509971315.4,286047002.1,N
1509971335.2,286047001.7,N
1509971355.1,286047002.1,N
1509971356.0,286047002.1,N
1509971375.8,286047002.0,N
1509971395.6,286047005.4,N
1509971415.5,286047005.8,N
1509971435.3,286047008.7,Y
1509971455.2,286047002.4,P
1509971475.9,286047003.8,P
1509971495.7,286047004.2,P
1509971515.6,286047000.9,N
1509971535.4,286046997.8,N
1509971555.2,286046995.6,N
1509971575.1,286046996.1,N
1509971576.0,286046996.1,N
1509971595.8,286046995.8,N
1509971615.7,286046994.1,N
1509971635.5,286046992.5,N
1509971655.3,286046992.2,N
1509971675.2,286046995.0,N
1509971695.9,286046995.0,N
1509971715.7,286046992.4,N
1509971735.6,286046996.1,N
1509971755.4,286046995.6,N
1509971775.2,286046996.9,N
1509971795.1,286046995.2,N
1509971796.0,286046995.2,N
1509971815.8,286046994.9,N
1509971835.6,286046995.1,N
1509971855.5,286046993.7,N
1509971875.3,286046995.1,N
1509971895.1,286046993.4,N
1509971915.9,286046998.7,N
1509971935.7,286047000.6,N
1509971955.6,286047002.6,N
1509971975.4,286047000.6,N
1509971995.2,286046996.9,N
1509972015.1,286046994.3,N
1509972016.0,286046994.3,N
1509972035.8,286046996.2,N
1509972055.6,286047002.7,N
1509972075.5,286046999.7,N
1509972095.3,286047000.6,N
1509972115.1,286046995.1,N
1509972135.9,286046996.1,N
1509972155.7,286046996.3,N
1509972175.5,286046996.4,N
1509972195.4,286046992.7,N
1509972215.2,286046994.8,N
1509972235.1,286046996.9,N
1509972236.0,286046996.9,N
1509972255.8,286047000.6,N
1509972275.6,286046998.5,N
1509972295.5,286047000.5,N
1509972315.3,286047000.5,N
1509972335.1,286046997.8,N
1509972355.9,286046996.7,N
1509972375.7,286047000.6,N
1509972395.5,286046994.0,N
1509972415.4,286046992.6,N
1509972435.2,286046993.8,N
1509972455.0,286046998.5,N
1509972456.0,286046998.5,N
1509972475.8,286046998.6,N
1509972495.6,286046997.7,N
1509972515.5,286046995.3,N
1509972535.3,286047000.1,N
1509972555.1,286046998.6,N
1509972575.9,286047000.7,N
1509972595.7,286047003.6,N
1509972615.5,286047006.3,N
1509972635.4,286047005.3,N
1509972655.2,286047007.1,N
1509972675.0,286047007.9,N
1509972675.9,286047007.9,N
1509972695.8,286047010.3,N
1509972715.6,286047006.3,N
1509972735.4,286047005.7,N
1509972755.3,286047007.9,N
1509972775.1,286047007.8,N
1509972795.8,286047004.7,N
1509972815.7,286047004.3,N
1509972835.5,286047001.4,N
1509972855.3,286046999.9,N
1509972875.2,286047000.1,N
1509972895.0,286047001.7,N
1509972895.9,286047001.7,N
1509972915.8,286047003.8,N
1509972935.6,286047007.6,N
1509972955.4,286047006.0,N
1509972975.3,286047006.0,N
1509972995.1,286047005.4,N
1509972996.0,286047005.4,N
1509973015.8,286047003.3,N
1509973035.7,286047001.7,N
1509973055.5,286047007.3,N
1509973075.3,286047005.1,N
1509973095.2,286047005.0,N
1509973115.9,286047007.0,N
1509973135.7,286047007.4,N
1509973155.6,286047006.3,N
1509973175.4,286047006.2,N
1509973195.3,286047008.7,Y
